Date String (YYYY-MM-DD hh:mm:ss) UTC,Instrument flags,absolute air pressure of the measurement (hPa),sample flow rate (lpm),inlet stack bypass flow (lpm),air temperature of the measurement (°C),ambient temperature measured by the external sensor (°C),aerosol sample conditioner tube jacket temperature (°C),OPC LED temperature (°C),internal box temperature (°C),relative humidity of the measurement (%),span deviation,mass concentration of particles derived from Lorenz-Mie calculation of OPC scattering (μg/m³),mass concentration of particles derived from Lorenz-Mie calculation of OPC scattering (μg/m³),mass concentration of particles derived from Lorenz-Mie calculation of OPC scattering (μg/m³)
DateTimeUTC,F1_M11,P_M11,Q1_M11,Q2_M11,T1_M11,T2_M11,T3_M11,T4_M11,T5_M11,U1_M11,ZSPAN_M11,X0_M11,X2_M11,X1_M11
2024-04-01 01:00:00,SystemResetWarning,0815.9,5.01,000.00,023.0,022.2,000.0,031.5,024.8,25.2,0001.2,0018.26,0010.55,0009.77
2024-04-01 01:01:00,SystemResetWarning,0816.0,5.00,000.00,023.0,022.3,000.0,031.5,024.8,25.1,0000.8,0018.84,0010.54,0009.77
2024-04-01 01:02:00,SystemResetWarning,0816.0,5.00,000.00,023.0,022.3,000.0,031.5,024.8,25.2,0000.6,0019.20,0010.52,0009.75
2024-04-01 01:03:00,SystemResetWarning,0816.0,5.00,000.00,023.0,022.3,000.0,031.5,024.9,25.1,0000.6,0018.74,0010.53,0009.75
2024-04-01 01:04:00,SystemResetWarning,0816.0,5.01,000.00,023.0,022.3,000.0,031.5,024.9,25.0,0000.3,0018.27,0010.51,0009.76
2024-04-01 01:05:00,SystemResetWarning,0816.1,5.00,000.00,023.0,022.3,000.0,031.5,024.9,24.8,0000.5,0018.31,0010.51,0009.76
2024-04-01 01:06:00,SystemResetWarning,0816.1,5.00,000.00,023.0,022.3,000.0,031.5,024.9,24.7,0000.6,0018.40,0010.51,0009.75
2024-04-01 01:07:00,SystemResetWarning,0816.1,5.00,000.00,023.0,022.3,000.0,031.5,024.9,24.7,0000.5,0018.69,0010.52,0009.74
2024-04-01 01:08:00,SystemResetWarning,0816.1,5.00,000.00,023.0,022.3,000.0,031.5,024.9,24.6,0000.6,0017.73,0010.49,0009.73
2024-04-01 01:09:00,SystemResetWarning,0816.1,5.00,000.00,023.0,022.3,000.0,031.5,024.9,24.6,0000.5,0017.56,0010.48,0009.71
2024-04-01 01:10:00,SystemResetWarning,0816.1,5.00,000.00,023.0,022.3,000.0,031.5,024.9,24.6,0000.3,0017.49,0010.43,0009.69
2024-04-01 01:11:00,SystemResetWarning,0816.1,5.00,000.00,023.0,022.3,000.0,031.5,024.9,24.6,0000.2,0016.17,0010.38,0009.65
2024-04-01 01:12:00,SystemResetWarning,0816.1,5.00,000.00,023.0,022.3,000.0,031.5,024.9,24.7,0000.6,0015.40,0010.38,0009.62
2024-04-01 01:13:00,SystemResetWarning,0816.1,5.02,000.00,023.0,022.3,000.0,031.5,024.9,24.6,0000.8,0014.96,0010.36,0009.61
2024-04-01 01:14:00,SystemResetWarning,0816.0,4.99,000.00,023.0,022.4,000.0,031.6,024.9,24.5,0000.9,0015.06,0010.31,0009.55
2024-04-01 01:15:00,SystemResetWarning,0815.9,4.99,000.00,023.0,022.4,000.0,031.6,024.9,24.5,0001.1,0015.05,0010.22,0009.46
2024-04-01 01:16:00,SystemResetWarning,0815.8,5.00,000.00,023.0,022.4,000.0,031.6,024.9,24.0,0000.8,0014.95,0010.11,0009.33
2024-04-01 01:17:00,SystemResetWarning,0815.7,5.01,000.00,023.0,022.4,000.0,031.6,024.9,23.8,0000.7,0015.13,0009.93,0009.14
2024-04-01 01:18:00,SystemResetWarning,0815.6,5.02,000.00,023.0,022.3,000.0,031.6,024.9,23.3,0000.9,0014.82,0009.70,0008.91
2024-04-01 01:19:00,SystemResetWarning,0815.6,4.99,000.00,023.0,022.3,000.0,031.6,024.9,21.5,0000.9,0014.81,0009.24,0008.45
2024-04-01 01:20:00,SystemResetWarning,0815.5,4.99,000.00,023.0,022.3,000.0,031.6,024.9,21.3,0001.0,0014.23,0008.65,0007.90
2024-04-01 01:21:00,SystemResetWarning,0815.4,5.01,000.00,023.0,022.3,000.0,031.6,024.9,21.0,0001.3,0013.64,0008.11,0007.36
2024-04-01 01:22:00,SystemResetWarning,0815.3,5.02,000.00,023.0,022.3,000.0,031.6,024.9,21.0,0001.7,0012.88,0007.49,0006.78
2024-04-01 01:23:00,SystemResetWarning,0815.3,4.99,000.00,023.0,022.3,000.0,031.6,024.9,20.4,0001.5,0012.02,0006.79,0006.14
2024-04-01 01:24:00,SystemResetWarning,0815.4,5.00,000.00,023.0,022.3,000.0,031.6,024.9,20.6,0001.7,0011.20,0006.10,0005.50
2024-04-01 01:25:00,SystemResetWarning,0815.4,5.00,000.00,023.0,022.3,000.0,031.6,024.9,20.9,0002.0,0010.57,0005.53,0004.96
2024-04-01 01:26:00,SystemResetWarning,0815.5,4.99,000.00,023.0,022.3,000.0,031.6,024.9,21.9,0002.2,0009.81,0005.08,0004.53
2024-04-01 01:27:00,SystemResetWarning,0815.6,4.99,000.00,023.0,022.3,000.0,031.6,024.9,22.1,0000.0,0009.31,0004.62,0004.10
2024-04-01 01:28:00,SystemResetWarning,0815.6,5.02,000.00,023.0,022.3,000.0,031.6,024.9,21.5,0000.0,0008.64,0004.23,0003.75
2024-04-01 01:29:00,SystemResetWarning,0815.6,5.00,000.00,023.0,022.3,000.0,031.6,024.9,20.8,0000.0,0007.23,0003.79,0003.33
2024-04-01 01:30:00,SystemResetWarning,0815.7,4.99,000.00,023.0,022.3,000.0,031.6,024.9,20.8,0000.0,0006.20,0003.53,0003.09
2024-04-01 01:31:00,SystemResetWarning,0815.7,4.99,000.00,023.0,022.3,000.0,031.6,024.9,20.9,0000.0,0005.68,0003.43,0002.95
2024-04-01 01:32:00,SystemResetWarning,0815.6,5.00,000.00,023.0,022.3,000.0,031.6,024.9,20.6,0000.0,0006.01,0003.30,0002.77
2024-04-01 01:33:00,SystemResetWarning,0815.8,5.01,000.00,023.0,022.3,000.0,031.6,024.9,20.3,0000.0,0006.25,0003.21,0002.59
2024-04-01 01:34:00,SystemResetWarning,0815.9,5.01,000.00,023.0,022.3,000.0,031.6,024.9,20.3,0000.0,0006.27,0003.15,0002.46
2024-04-01 01:35:00,SystemResetWarning,0815.9,5.00,000.00,023.0,022.3,000.0,031.6,024.9,20.3,0000.0,0006.66,0003.10,0002.36
2024-04-01 01:36:00,SystemResetWarning,0815.9,4.99,000.00,023.0,022.3,000.0,031.6,024.9,20.2,0000.0,0007.26,0002.92,0002.19
2024-04-01 01:37:00,SystemResetWarning,0815.9,4.99,000.00,023.0,022.2,000.0,031.6,024.9,20.3,0000.0,0008.09,0002.59,0001.90
2024-04-01 01:38:00,SystemResetWarning,0816.0,5.01,000.00,023.0,022.2,000.0,031.6,024.9,20.3,0000.0,0007.92,0002.17,0001.53
2024-04-01 01:39:00,SystemResetWarning,0815.9,5.00,000.00,023.0,022.2,000.0,031.6,024.9,20.5,0000.0,0007.64,0001.79,0001.20
2024-04-01 01:40:00,SystemResetWarning,0816.0,5.00,000.00,023.0,022.2,000.0,031.6,024.8,20.6,0000.0,0007.45,0001.55,0001.01
2024-04-01 01:41:00,SystemResetWarning,0816.0,5.00,000.00,023.0,022.2,000.0,031.6,024.8,20.7,0000.0,0007.26,0001.42,0000.89
2024-04-01 01:42:00,SystemResetWarning,0816.0,5.00,000.00,023.0,022.2,000.0,031.6,024.8,20.8,0000.0,0007.08,0001.27,0000.76
2024-04-01 01:43:00,SystemResetWarning,0816.0,5.00,000.00,023.0,022.2,000.0,031.6,024.8,20.9,0000.0,0006.19,0001.13,0000.68
2024-04-01 01:44:00,SystemResetWarning,0816.0,5.00,000.00,023.0,022.2,000.0,031.6,024.8,20.8,0000.0,0005.51,0001.03,0000.63
2024-04-01 01:45:00,SystemResetWarning,0816.1,5.00,000.00,023.0,022.1,000.0,031.6,024.8,20.9,0000.0,0005.26,0000.95,0000.59
2024-04-01 01:46:00,SystemResetWarning,0816.1,4.99,000.00,022.9,022.1,000.0,031.6,024.8,21.0,0000.0,0004.67,0000.89,0000.56
2024-04-01 01:47:00,SystemResetWarning,0816.1,5.00,000.00,022.9,022.1,000.0,031.6,024.8,21.1,0000.0,0003.71,0000.84,0000.53
2024-04-01 01:48:00,SystemResetWarning,0816.2,5.00,000.00,022.9,022.1,000.0,031.5,024.8,21.2,0000.0,0001.67,0000.77,0000.50
2024-04-01 01:49:00,SystemResetWarning,0816.2,5.00,000.00,022.9,022.1,000.0,031.5,024.8,21.1,0000.0,0001.23,0000.71,0000.46
2024-04-01 01:50:00,SystemResetWarning,0816.2,5.00,000.00,022.9,022.1,000.0,031.5,024.8,21.2,0000.0,0001.15,0000.68,0000.45
2024-04-01 01:51:00,SystemResetWarning,0816.2,5.00,000.00,022.9,022.1,000.0,031.5,024.8,21.3,0000.0,0001.10,0000.66,0000.44
2024-04-01 01:52:00,SystemResetWarning,0816.2,5.00,000.00,022.9,022.1,000.0,031.5,024.7,21.2,0000.0,0000.97,0000.60,0000.43
2024-04-01 01:53:00,SystemResetWarning,0816.2,4.99,000.00,022.9,022.1,000.0,031.5,024.8,21.4,0000.0,0000.97,0000.59,0000.42
2024-04-01 01:54:00,SystemResetWarning,0816.3,5.00,000.00,022.9,022.2,000.0,031.5,024.7,21.3,0000.0,0001.03,0000.63,0000.41
2024-04-01 01:55:00,SystemResetWarning,0816.2,5.01,000.00,022.9,022.1,000.0,031.5,024.7,21.3,0000.0,0001.08,0000.64,0000.40
2024-04-01 01:56:00,SystemResetWarning,0816.2,5.00,000.00,022.9,022.1,000.0,031.5,024.7,21.2,0000.0,0001.08,0000.62,0000.39
2024-04-01 01:57:00,SystemResetWarning,0816.2,5.00,000.00,022.9,022.1,000.0,031.5,024.7,21.3,0000.0,0001.14,0000.62,0000.37
2024-04-01 01:58:00,SystemResetWarning,0816.3,5.00,000.00,022.9,022.1,000.0,031.5,024.7,21.4,0000.0,0001.15,0000.62,0000.36
2024-04-01 01:59:00,SystemResetWarning,0816.2,5.00,000.00,022.9,022.2,000.0,031.5,024.8,21.5,0000.0,0001.14,0000.61,0000.36
